Weather Roundup
Issued by NWS Chicago, IL

Home | Current Version | Previous Version | Graphics & Text | Print | Product List | Glossary On
Versions: 1 2 3 4 5 6 7 8 9 10 11 12 13 14 15 16 17 18 19 20 21 22 23 24 25 26 27 28 29 30 31 32 33 34 35 36 37 38 39 40 41 42 43 44 45 46 47 48 49 50
000
NZUS59 KLOT 180703
HRRLOT

CHICAGO AREA WEATHER ROUNDUP
NATIONAL WEATHER SERVICE CHICAGO/ROMEOVILLE IL
100 AM CST WED JAN 18 2017

NOTE: "FAIR" INDICATES FEW OR NO CLOUDS BELOW 12,000 FEET WITH NO
SIGNIFICANT WEATHER AND/OR OBSTRUCTIONS TO VISIBILITY.

* THESE STATIONS ARE NOT UNDER NWS QUALITY CONTROL. THEY ALSO MAY NOT
  REPORT WEATHER SUCH AS PRECIPITATION OR FOG.

ILZ005-006-012>014-019>023-180800-
NORTHEAST ILLINOIS

CITY           SKY/WX    TMP DP  RH WIND       PRES   REMARKS
OHARE          CLOUDY    35  33  92 W8        30.02R FOG     WCI  29
MIDWAY         CLOUDY    34  32  92 W7        30.03R FOG     WCI  28
AURORA         CLOUDY    35  33  92 W12       30.04R FOG     WCI  27
LANSING*       CLOUDY    34  34  99 W8        30.04R FOG     WCI  28
JOLIET*        CLOUDY    35  34  96 W6        30.07R FOG     WCI  30
WAUKEGAN       CLOUDY    35  33  92 W7        30.00R FOG     WCI  29
DUPAGE AIRPORT CLOUDY    34  32  92 W12       30.02R FOG     WCI  25
WHEELING       CLOUDY    35  33  92 W7        30.03R WCI  29
KANKAKEE*      CLOUDY    34  34  99 W9        30.08R FOG     WCI  27
MORRIS*        CLOUDY    34  32  94 W10       30.06R FOG     WCI  26
LEWIS AIRPORT* CLOUDY    33  33 100 W9        30.05R FOG     WCI  26
NORTHERLY ISL    N/A     36  33  89 W8          N/A
$$

WIZ051-052-058>065-066-070>072-180800-
SOUTHEAST WISCONSIN

CITY           SKY/WX    TMP DP  RH WIND       PRES   REMARKS
MILWAUKEE      CLOUDY    36  33  89 W7        29.98S
KENOSHA*       CLOUDY    34  33  96 W8        30.00R FOG     WCI  27
RACINE*        CLOUDY    35  33  92 W7        30.01R FOG     WCI  29
WAUKESHA       CLOUDY    32  32 100 W7        29.99S FOG     WCI  26
$$

INZ001>003-010>013-019-020-180800-
NORTHWEST INDIANA

CITY           SKY/WX    TMP DP  RH WIND       PRES   REMARKS
GARY*          CLOUDY    37  33  89 W7        30.05R FOG
MICHIGAN CITY* NOT AVBL
RENSSELAER*    NOT AVBL
VALPARAISO     CLOUDY    35  34  96 W13       30.03R FOG     WCI  26
$$

LMZ740>746-180800-
SOUTHERN LAKE MICHIGAN

STATION/POSITION TIME  SKY/WX   TEMP WIND        PRES    VSBY
                                AIR  DIR/SP/G
                 (UTC)          (F)  (DEG/KT/KT) (MB)    (MI)
HARRISON CRIB    0640            36  280/ 14/ 17   N/A
BURNHAM HARBOR   0700            35  280/  6/ 13   N/A
CALUMET HARBOR   0630            35  260/  6/  9 1016.1R
BURNS HARBOR     0640            34  270/ 10/ 12 1017.3R
MICHIGAN CITY    NOT AVBL
$$

ABBREVIATIONS USED IN REMARKS
   TC - TEMPERATURE IN CELSIUS
  WCI - WIND CHILL INDEX
   HX - HEAT INDEX
  VSB - VISIBILITY
$$




USA.gov is the U.S. government's official web portal to all federal, state and local government web resources and services.